Theta_e
310 310 310 311 311 311 311 310 310 309 308 307 307 308 311 313 312 313 313 313 315 315 314 315 316 315 315 316 316 312 311 314 315 318 317 314 315 314 312 314 314 312 311 311 312
310 310 311 311 311 311 311 311 311 311 310 309 308 307 308 312 312 313 313 314 315 315 314 314 313 313 313 317 316 315 311 312 313 316 316 315 313 314 314 313 313 313 309 309 310
311 311 311 311 311 311 311 311 311 311 311 310 309 308 307 312 315 314 317 314 315 314 313 315 314 313 315 315 316 315 315 315 316 316 314 314 314 312 313 312 310 311 310 306 306
310 310 311 311 311 311 311 311 311 311 311 310 310 308 307 312 307 316 314 317 314 312 314 313 313 315 315 316 315 317 314 314 316 316 315 314 313 313 310 313 312 308 308 305 305
313 313 311 308 308 309 311 311 312 311 311 311 310 308 309 315 312 311 313 314 313 311 313 311 313 314 316 314 315 316 316 315 314 313 312 313 313 312 310 308 308 308 306 306 306
314 314 313 312 311 307 305 306 310 311 311 311 309 308 311 309 311 313 315 312 311 312 312 312 311 312 314 315 314 313 315 314 313 313 312 314 312 312 312 310 308 308 307 305 306
314 314 314 314 313 310 309 306 305 307 310 310 309 309 317 308 311 313 313 311 310 311 311 311 312 314 313 315 314 314 314 312 313 312 312 311 313 312 313 311 310 308 306 306 306
315 315 315 315 315 311 309 309 306 305 307 309 309 312 308 311 313 313 312 311 310 312 311 313 313 313 314 312 311 314 313 313 312 311 312 312 314 312 310 310 310 308 306 305 306
316 316 316 316 317 311 307 308 307 306 307 310 313 315 312 313 312 312 312 311 310 310 311 312 313 311 314 311 310 309 309 310 311 311 313 311 313 312 310 308 309 307 307 306 307
317 317 317 317 317 311 309 309 309 310 314 315 318 315 311 312 313 313 311 311 310 311 310 311 309 310 311 309 310 309 311 311 312 312 312 311 312 313 311 309 307 307 305 306 308
318 318 318 318 318 312 309 311 307 306 312 309 310 310 311 313 313 311 311 310 311 310 308 310 309 309 310 311 310 309 309 310 310 311 313 312 313 313 313 310 308 310 310 309 306
321 320 320 319 318 314 311 310 309 309 306 307 306 308 311 313 313 311 310 309 310 311 309 310 309 309 309 308 310 311 312 311 311 311 310 312 313 312 312 313 313 310 310 310 311
322 321 321 321 318 315 311 309 310 311 310 308 307 306 306 311 310 311 308 308 309 310 309 311 310 310 309 310 311 310 311 311 311 311 308 309 311 309 309 311 312 312 311 311 311
324 323 322 322 316 316 311 311 308 310 303 306 309 308 310 310 309 308 308 309 309 310 308 309 310 310 310 311 311 312 310 311 312 311 313 311 313 310 309 309 309 310 310 310 309
325 324 323 321 320 316 315 310 308 306 317 310 309 310 310 307 308 308 307 309 310 311 310 309 311 310 310 311 310 313 310 309 309 309 310 310 311 311 310 310 310 311 310 310 310
323 323 322 318 318 320 316 308 308 309 316 309 308 310 310 310 310 307 308 307 308 309 308 309 308 309 309 310 308 309 311 310 307 308 313 311 311 311 309 311 310 310 310 310 310
320 320 320 319 316 316 311 309 320 320 313 312 309 311 310 310 310 308 308 309 309 309 307 307 308 308 309 310 309 310 310 311 310 311 314 308 310 312 310 309 308 310 310 309 309
317 319 319 320 318 314 311 316 323 321 312 313 311 310 310 310 310 309 308 308 306 307 306 308 311 308 307 310 310 309 310 312 310 313 313 306 311 313 309 309 308 307 308 308 307
310 315 317 319 318 313 316 322 325 323 316 316 318 317 312 310 309 310 308 308 307 306 309 309 311 308 307 308 309 309 310 311 310 296 307 311 309 310 308 308 307 307 307 304 302
310 313 314 316 318 313 316 323 322 318 319 318 323 319 316 314 313 312 311 308 309 306 307 310 311 308 306 306 307 308 308 311 310 310 310 310 310 313 311 310 307 305 304 304 303
309 313 313 315 313 312 318 318 318 316 317 319 321 322 318 319 316 318 315 312 308 309 307 309 311 313 307 307 310 307 308 308 310 314 317 317 315 314 313 308 307 307 304 303 301
309 312 312 313 314 314 318 316 315 316 315 317 316 319 320 319 321 321 322 318 309 309 310 312 314 316 315 312 306 307 309 310 313 314 312 314 315 313 312 312 306 304 303 302 303
309 311 312 312 316 317 314 315 315 315 316 316 317 315 315 317 318 316 316 315 314 312 314 313 316 319 317 314 312 311 311 309 311 311 314 315 314 312 311 310 307 304 307 308 306
302 307 311 310 312 314 315 315 315 312 313 313 315 314 315 316 315 316 316 314 311 312 315 314 316 318 320 317 312 312 308 307 309 312 313 312 311 310 310 310 310 310 310 309 307
298 300 304 309 311 311 312 312 313 312 312 312 313 314 314 315 316 317 315 314 313 312 311 313 317 315 314 314 314 316 316 314 314 313 314 313 312 311 310 311 311 310 309 308 307
297 299 298 300 300 304 308 310 310 310 311 311 312 306 306 308 309 308 305 306 307 305 305 309 314 314 316 314 313 314 313 313 313 314 314 314 314 312 312 312 312 312 311 311 311
295 296 298 296 298 298 299 303 304 301 302 304 299 298 299 300 297 297 298 300 302 303 303 306 309 312 314 312 313 316 314 313 313 312 313 316 314 312 312 311 311 310 310 308 303
Wind_Speed
7 7 8 8 9 10 10 10 11 11 11 11 12 12 10 9 9 11 7 8 5 10 8 8 6 4 2 1 2 3 3 3 5 3 4 2 3 1 1 3 3 6 3 3 16
9 9 9 9 8 9 10 10 10 11 11 12 13 14 12 10 10 13 16 9 9 11 11 10 4 4 1 2 1 4 3 8 6 2 3 3 5 3 2 3 4 4 1 6 31
11 12 12 12 12 12 11 11 12 12 12 12 12 14 12 10 4 6 3 14 12 12 9 8 4 6 2 3 4 5 6 6 6 3 4 3 3 5 5 7 9 10 7 9 15
13 12 12 13 13 13 13 13 13 13 13 14 14 13 9 3 5 2 1 8 15 13 11 6 4 5 5 6 6 4 9 7 6 3 3 4 2 5 9 15 6 12 7 10 14
11 12 12 12 13 14 15 15 14 14 15 15 15 14 4 0 10 12 7 9 15 16 16 7 6 5 5 5 2 6 6 6 7 7 6 3 10 8 11 11 10 7 9 15 16
12 13 15 15 14 13 13 15 15 15 14 14 14 11 2 4 8 10 9 12 14 17 9 9 7 6 4 5 6 2 4 7 6 7 5 5 7 5 16 4 13 11 13 13 18
12 13 15 16 17 17 17 15 14 16 15 13 12 5 3 15 8 9 12 11 15 13 4 7 4 1 1 5 4 4 9 8 11 7 9 6 11 12 26 4 10 12 12 13 19
11 13 16 18 21 22 20 18 16 15 15 12 7 6 7 7 11 15 13 8 7 10 3 2 4 2 2 4 7 4 3 5 1 5 4 10 18 14 12 8 16 13 11 10 16
11 13 15 19 23 26 21 18 17 15 10 3 6 5 8 2 5 11 13 5 7 4 3 3 3 3 1 4 4 2 6 8 13 11 6 7 11 9 5 8 13 11 11 11 14
12 13 15 18 23 23 22 18 6 4 6 6 2 1 5 6 5 6 13 9 3 6 3 3 4 2 1 4 8 8 6 6 8 2 3 8 16 15 10 7 12 11 10 12 15
13 14 15 18 23 17 22 4 5 3 1 7 5 5 3 4 8 8 8 10 5 4 6 4 4 10 21 17 15 3 7 8 10 5 5 10 17 20 20 9 12 16 18 17 16
14 14 15 16 21 15 10 5 1 2 7 10 13 9 21 4 4 5 11 7 6 7 5 1 9 18 6 5 9 12 19 21 19 19 7 17 22 16 14 22 20 17 20 22 21
14 14 13 14 16 8 5 4 1 2 2 9 6 5 6 12 9 7 12 5 5 8 10 15 11 10 10 8 11 13 14 18 17 7 5 11 19 13 11 19 22 22 22 22 24
16 14 13 12 3 9 1 7 1 3 3 7 4 4 1 5 3 2 7 5 2 11 7 8 12 15 8 8 14 16 13 15 13 3 10 1 23 6 7 15 16 19 21 18 21
14 14 13 6 8 3 2 6 2 3 6 4 2 3 3 3 2 3 1 3 4 3 4 10 5 6 10 22 9 13 5 8 4 5 4 7 7 6 13 11 16 23 18 20 21
13 11 9 7 8 7 5 4 2 2 7 5 1 2 3 1 2 2 2 3 2 3 5 12 2 5 8 4 7 2 2 3 4 2 10 13 10 1 7 12 7 13 20 18 19
12 11 12 8 3 5 1 2 2 6 2 4 3 3 4 5 3 6 5 6 6 2 5 2 6 6 6 5 3 4 5 4 4 1 12 9 9 24 6 7 11 15 16 18 15
8 10 14 16 13 7 5 2 9 7 7 2 3 3 6 6 7 6 5 4 5 2 2 1 15 8 5 11 9 10 11 7 9 12 18 6 9 13 11 11 12 12 15 16 16
9 11 13 18 15 14 2 7 7 5 6 4 6 4 5 6 6 3 5 5 8 14 9 5 16 2 5 4 9 3 6 17 2 2 2 10 13 12 6 8 9 11 13 13 13
4 5 10 17 21 12 4 21 7 6 2 2 10 8 7 5 3 4 7 4 5 11 9 5 14 5 3 2 4 8 4 1 1 4 7 7 7 16 15 11 9 11 13 15 11
4 3 7 21 21 2 10 9 7 6 3 7 9 12 8 6 8 14 8 5 5 3 8 4 5 21 2 7 8 1 4 5 3 5 14 18 11 29 25 7 10 13 10 10 10
4 4 8 30 5 4 13 7 4 12 6 12 6 18 19 17 18 18 22 20 1 3 5 5 4 9 25 20 4 4 9 11 11 12 11 17 19 29 27 23 6 9 9 8 6
2 3 14 11 8 11 4 7 7 12 13 6 9 9 9 20 20 22 24 22 13 9 6 7 4 5 3 11 16 12 19 14 16 18 25 22 20 27 23 24 14 13 20 18 9
2 3 3 3 7 9 13 17 16 8 12 8 13 14 19 21 22 22 25 9 8 11 16 6 11 17 20 18 6 6 10 11 17 17 24 22 26 24 31 27 27 19 22 21 13
1 4 2 3 10 13 13 11 17 19 8 4 7 16 20 20 24 21 22 20 13 14 7 9 21 27 29 30 28 27 26 25 26 29 29 30 28 22 29 32 28 18 19 11 10
2 2 3 4 5 4 4 13 18 16 5 9 8 6 4 4 4 6 4 4 4 5 6 6 12 18 25 25 27 29 28 31 35 35 34 33 33 28 31 29 31 27 23 18 18
3 2 1 3 2 0 3 3 2 5 4 7 6 7 8 9 11 15 15 15 16 16 19 9 8 11 18 15 20 21 27 32 35 33 29 30 32 27 26 26 27 19 13 12 16
Wind_Direction
3 5 6 6 3 3 3 5 5 4 2 359 354 348 337 317 289 268 244 238 225 203 173 160 169 177 173 292 186 96 60 253 253 220 267 341 238 265 327 131 239 202 174 301 168
342 344 345 344 345 343 343 344 344 347 348 348 346 343 336 327 299 254 263 230 213 189 178 169 173 151 358 238 216 119 152 227 219 243 247 233 205 235 210 202 247 271 91 136 162
333 336 337 335 334 330 328 329 330 332 333 336 338 337 333 333 322 245 301 212 206 194 196 188 151 147 221 162 205 187 216 220 257 249 204 225 245 204 203 248 217 212 195 163 169
348 341 331 326 323 320 319 319 320 321 323 327 329 328 322 345 293 284 317 177 199 199 188 186 166 175 206 212 205 213 241 225 262 255 259 227 261 244 202 237 213 226 180 169 183
357 355 345 331 317 311 307 306 307 311 315 319 324 323 317 77 247 270 257 194 201 201 198 176 172 176 203 210 238 230 252 237 239 278 258 303 245 233 257 244 250 256 172 189 197
355 356 355 349 337 320 303 295 294 295 298 305 314 312 144 248 265 261 228 200 202 202 205 183 206 207 242 228 194 275 262 267 272 238 246 209 273 141 258 211 237 225 218 206 206
345 348 352 351 345 331 316 301 291 282 282 288 299 264 177 234 239 246 228 225 214 208 185 220 232 163 335 295 297 303 303 310 249 227 236 152 285 229 252 192 243 245 233 217 220
338 343 345 344 345 336 320 307 291 280 277 283 273 192 240 250 260 228 219 232 229 229 234 325 183 177 182 302 353 320 332 314 331 147 241 144 263 251 253 204 254 246 253 237 234
327 335 342 342 344 339 329 314 297 288 281 242 159 179 261 236 208 231 221 213 195 167 120 114 133 183 314 106 348 301 245 230 299 193 163 182 249 278 250 203 252 258 255 252 255
319 327 337 341 343 343 343 323 329 97 118 129 113 44 260 228 192 196 198 171 132 116 83 105 55 200 60 127 227 223 222 251 244 235 173 225 248 270 267 205 247 268 268 255 255
311 319 328 338 343 347 347 6 11 12 274 198 210 235 258 170 170 184 165 152 109 102 175 193 137 214 225 210 231 195 224 233 252 251 199 234 238 248 267 256 243 254 258 255 245
301 310 322 335 340 347 3 64 133 267 303 260 250 259 259 178 215 222 162 148 148 195 143 103 217 232 250 201 223 240 253 261 267 263 212 260 257 247 252 265 260 241 250 252 254
290 297 311 330 337 360 42 69 345 215 250 286 223 213 239 179 225 230 153 145 166 173 196 218 224 228 224 232 239 231 236 251 258 298 233 279 272 241 245 253 265 260 251 257 256
274 281 293 321 321 342 24 1 20 198 6 273 254 264 120 173 249 27 173 150 229 223 205 230 241 225 206 227 224 264 231 255 263 290 273 68 296 196 234 242 252 258 258 250 250
263 263 270 264 298 293 308 342 343 172 308 265 231 351 30 164 113 8 104 72 202 187 169 245 191 184 214 233 184 256 199 234 205 216 343 207 266 206 205 245 247 257 252 258 250
251 253 246 229 233 246 286 336 106 39 251 300 42 40 89 12 345 46 51 27 170 213 215 242 214 195 223 215 196 135 70 22 55 99 268 210 211 173 177 214 239 256 259 253 256
276 266 233 224 246 182 124 78 331 219 301 243 215 164 200 200 228 183 175 179 203 249 229 285 218 220 163 237 161 150 96 298 322 7 243 175 203 257 257 230 215 238 258 262 260
283 261 247 235 224 172 92 64 217 186 219 307 151 143 196 158 240 191 168 234 247 187 297 235 288 182 182 203 194 204 187 183 205 250 263 112 242 269 221 237 249 246 261 259 265
268 254 232 235 213 198 134 224 240 201 194 216 318 254 233 229 205 140 228 230 218 185 200 208 267 155 186 169 151 174 196 232 342 82 2 270 275 295 255 266 287 281 285 273 268
258 238 229 241 208 160 220 246 233 203 143 192 249 210 186 182 208 182 205 195 232 192 212 277 275 198 40 2 271 176 151 37 224 180 234 250 288 274 272 287 298 313 292 284 279
262 251 226 206 165 203 227 234 237 197 179 214 246 258 253 251 230 265 266 217 192 247 185 198 199 264 72 207 217 231 243 215 204 193 250 260 255 267 282 283 285 297 297 315 310
252 238 194 160 183 212 236 235 233 248 243 249 255 254 260 270 274 260 255 244 190 195 221 178 168 245 257 257 224 254 245 233 240 247 235 252 250 261 267 273 269 277 275 275 287
261 264 189 187 222 224 232 239 225 251 237 219 241 233 253 264 267 257 260 261 242 221 216 183 207 246 209 285 262 234 247 230 246 259 254 255 253 258 270 274 248 244 269 275 276
289 269 209 215 241 251 241 245 244 232 247 244 261 266 266 263 264 271 264 255 211 224 237 200 226 238 256 267 273 242 221 232 236 254 255 251 262 266 271 266 269 265 270 277 292
237 249 321 224 234 246 248 266 262 260 226 251 253 245 256 270 266 264 274 291 296 274 248 237 249 251 253 257 251 254 261 258 257 254 252 252 252 255 264 269 271 272 274 293 294
252 308 347 316 302 277 244 237 257 269 261 250 256 349 356 280 322 303 332 354 267 338 345 304 278 281 262 246 248 245 246 255 262 260 260 259 254 255 254 265 276 272 282 287 278
259 315 324 260 318 201 232 272 299 38 258 265 0 334 290 297 329 302 289 273 256 266 280 267 276 283 274 289 279 259 246 258 259 263 258 257 256 262 269 267 276 294 303 345 8